H1 CPF 2 NER 2024 4 24 9 115 01 glonass140 H2 1903001 9140 44299 2024 4 24 0 0 0 2024 4 27 23 45 0 900 1 1 0 0 0 1 H9 10 0 60424 0.00000 0 -4051352.381 10569927.027 22882889.813 10 0 60424 900.00000 0 -6826079.848 10368682.040 22308662.199 10 0 60424 1800.00000 0 -9510938.730 10369763.281 21302311.258 10 0 60424 2700.00000 0 -12039866.708 10556991.904 19883313.884 10 0 60424 3600.00000 0 -14351997.550 10903024.974 18079119.624 10 0 60424 4500.00000 0 -16393959.117 11370601.507 15924627.511 10 0 60424 5400.00000 0 -18121869.218 11914220.162 13461520.618 10 0 60424 6300.00000 0 -19502947.418 12482178.778 10737470.067 10 0 60424 7200.00000 0 -20516676.333 13018890.741 7805222.692 10 0 60424 8100.00000 0 -21155464.357 13467381.325 4721588.946 10 0 60424 9000.00000 0 -21424782.196 13771859.272 1546349.687 10 0 60424 9900.00000 0 -21342767.321 13880255.276 -1658897.570 10 0 60424 10800.00000 0 -20939312.657 13746619.939 -4831930.935 10 0 60424 11700.00000 0 -20254677.431 13333279.228 -7911111.874 10 0 60424 12600.00000 0 -19337678.309 12612655.302 -10836584.713 10 0 60424 13500.00000 0 -18243536.764 11568674.326 -13551444.198 10 0 60424 14400.00000 0 -17031473.256 10197700.058 -16002847.906 10 0 60424 15300.00000 0 -15762149.686 8508951.900 -18143051.227 10 0 60424 16200.00000 0 -14495068.119 6524387.719 -19930344.210 10 0 60424 17100.00000 0 -13286035.684 4278054.309 -21329871.496 10 0 60424 18000.00000 0 -12184802.860 1814930.851 -22314318.832 10 0 60424 18900.00000 0 -11232975.033 -810687.867 -22864452.390 10 0 60424 19800.00000 0 -10462285.632 -3537202.233 -22969499.984 10 0 60424 20700.00000 0 -9893303.880 -6298029.646 -22627366.377 10 0 60424 21600.00000 0 -9534631.755 -9024141.186 -21844678.166 10 0 60424 22500.00000 0 -9382623.969 -11646707.774 -20636657.062 10 0 60424 23400.00000 0 -9421642.609 -14099745.596 -19026823.756 10 0 60424 24300.00000 0 -9624835.313 -16322650.470 -17046537.994 10 0 60424 25200.00000 0 -9955403.496 -18262515.389 -14734383.766 10 0 60424 26100.00000 0 -10368306.283 -19876134.431 -12135411.719 10 0 60424 27000.00000 0 -10812327.101 -21131609.486 -9300253.932 10 0 60424 27900.00000 0 -11232414.433 -22009493.084 -6284128.840 10 0 60424 28800.00000 0 -11572196.493 -22503420.187 -3145756.507 10 0 60424 29700.00000 0 -11776562.213 -22620203.646 53793.688 10 0 60424 30600.00000 0 -11794198.227 -22379390.717 3252299.521 10 0 60424 31500.00000 0 -11579973.548 -21812301.002 6387602.270 10 0 60424 32400.00000 0 -11097070.571 -20960588.148 9398818.411 10 0 60424 33300.00000 0 -10318771.853 -19874387.475 12227522.582 10 0 60424 34200.00000 0 -9229827.225 -18610129.002 14818878.538 10 0 60424 35100.00000 0 -7827343.616 -17228108.931 17122696.353 10 0 60424 36000.00000 0 -6121160.245 -15789922.262 19094395.947 10 0 60424 36900.00000 0 -4133693.501 -14355864.447 20695859.161 10 0 60424 37800.00000 0 -1899257.917 -12982410.641 21896155.113 10 0 60424 38700.00000 0 537108.785 -11719877.237 22672126.142 10 0 60424 39600.00000 0 3121268.188 -10610362.344 23008824.338 10 0 60424 40500.00000 0 5791984.757 -9686049.866 22899791.460 10 0 60424 41400.00000 0 8483228.483 -8967946.588 22347177.729 10 0 60424 42300.00000 0 11126682.571 -8465103.671 21361697.796 10 0 60424 43200.00000 0 13654353.792 -8174353.978 19962424.857 10 0 60424 44100.00000 0 16001178.933 -8080575.408 18176426.592 10 0 60424 45000.00000 0 18107520.707 -8157468.830 16038249.315 10 0 60424 45900.00000 0 19921450.867 -8368817.961 13589259.342 10 0 60424 46800.00000 0 21400726.609 -8670178.553 10876853.143 10 0 60424 47700.00000 0 22514378.670 -9010926.373 7953550.403 10 0 60424 48600.00000 0 23243845.187 -9336578.237 4875986.441 10 0 60424 49500.00000 0 23583603.982 -9591288.740 1703822.539 10 0 60424 50400.00000 0 23541276.490 -9720417.497 -1501405.325 10 0 60424 51300.00000 0 23137198.562 -9673058.387 -4677477.386 10 0 60424 52200.00000 0 22403475.580 -9404423.421 -7762697.639 10 0 60424 53100.00000 0 21382561.055 -8877979.556 -10697094.318 10 0 60424 54000.00000 0 20125418.011 -8067246.893 -13423589.646 10 0 60424 54900.00000 0 18689340.153 -6957180.631 -15889115.550 10 0 60424 55800.00000 0 17135524.329 -5545076.590 -18045653.042 10 0 60424 56700.00000 0 15526496.424 -3840960.068 -19851174.435 10 0 60424 57600.00000 0 13923499.046 -1867439.536 -21270469.509 10 0 60424 58500.00000 0 12383951.122 340970.691 -22275839.001 10 0 60424 59400.00000 0 10959086.431 2739032.304 -22847641.474 10 0 60424 60300.00000 0 9691870.575 5272421.467 -22974682.526 10 0 60424 61200.00000 0 8615284.086 7879756.650 -22654438.379 10 0 60424 62100.00000 0 7751043.860 10494932.045 -21893109.158 10 0 60424 63000.00000 0 7108816.520 13049659.702 -20705500.528 10 0 60424 63900.00000 0 6685956.449 15476114.531 -19114735.709 10 0 60424 64800.00000 0 6467778.922 17709571.774 -17151803.347 10 0 60424 65700.00000 0 6428356.009 19690926.696 -14854949.954 10 0 60424 66600.00000 0 6531800.626 21368990.944 -12268928.930 10 0 60424 67500.00000 0 6733983.273 22702469.555 -9444121.128 10 0 60424 68400.00000 0 6984607.553 23661535.942 -6435544.664 10 0 60424 69300.00000 0 7229555.230 24228939.201 -3301774.059 10 0 60424 70200.00000 0 7413400.159 24400598.095 -103790.699 10 0 60424 71100.00000 0 7481983.356 24185657.759 3096212.025 10 0 60424 72000.00000 0 7384939.025 23606008.203 6236044.605 10 0 60424 72900.00000 0 7078063.838 22695286.402 9254733.851 10 0 60424 73800.00000 0 6525428.665 21497405.516 12093707.749 10 0 60424 74700.00000 0 5701143.301 20064674.567 14697929.410 10 0 60424 75600.00000 0 4590699.617 18455588.646 17016958.312 10 0 60424 76500.00000 0 3191836.657 16732383.239 19005918.798 10 0 60424 77400.00000 0 1514891.394 14958455.474 20626357.944 10 0 60424 78300.00000 0 -417379.590 13195760.038 21846977.411 10 0 60424 79200.00000 0 -2570500.265 11502287.910 22644226.451 10 0 60424 80100.00000 0 -4899468.466 9929732.103 23002745.945 10 0 60424 81000.00000 0 -7350393.421 8521436.366 22915656.116 10 0 60424 81900.00000 0 -9862510.545 7310710.777 22384683.307 10 0 60424 82800.00000 0 -12370491.160 6319582.905 21420123.959 10 0 60424 83700.00000 0 -14806952.774 5558035.122 20040646.646 10 0 60424 84600.00000 0 -17105067.371 5023758.722 18272935.713 10 0 60424 85500.00000 0 -19201160.891 4702434.247 16151182.780 10 0 60425 0.00000 0 -21037197.110 4568525.793 13716435.182 10 0 60425 900.00000 0 -22563044.602 4586555.820 11015811.470 10 0 60425 1800.00000 0 -23738430.611 4712807.155 8101601.273 10 0 60425 2700.00000 0 -24534503.963 4897380.712 5030261.488 10 0 60425 3600.00000 0 -24934939.101 5086522.699 1861330.448 10 0 60425 4500.00000 0 -24936535.702 5225123.297 -1343720.778 10 0 60425 5400.00000 0 -24549287.951 5259281.268 -4522677.869 10 0 60425 6300.00000 0 -23795919.797 5138825.764 -7613790.556 10 0 60425 7200.00000 0 -22710904.896 4819688.046 -10556974.065 10 0 60425 8100.00000 0 -21339011.663 4266021.741 -13294980.976 10 0 60425 9000.00000 0 -19733433.958 3451980.605 -15774520.208 10 0 60425 9900.00000 0 -17953585.488 2363076.992 -17947300.707 10 0 60425 10800.00000 0 -16062650.345 997061.797 -19770978.971 10 0 60425 11700.00000 0 -14124992.416 -635713.281 -21209991.377 10 0 60425 12600.00000 0 -12203532.475 -2512468.431 -22236254.598 10 0 60425 13500.00000 0 -10357203.099 -4598698.057 -22829720.002 10 0 60425 14400.00000 0 -8638588.295 -6849375.089 -22978770.866 10 0 60425 15300.00000 0 -7091846.904 -9210608.220 -22680454.263 10 0 60425 16200.00000 0 -5751006.833 -11621683.872 -21940542.780 10 0 60425 17100.00000 0 -4638701.448 -14017408.258 -20773424.561 10 0 60425 18000.00000 0 -3765400.772 -16330652.004 -19201823.532 10 0 60425 18900.00000 0 -3129169.074 -18494991.047 -17256355.126 10 0 60425 19800.00000 0 -2715958.130 -20447333.234 -14974926.044 10 0 60425 20700.00000 0 -2500422.600 -22130420.440 -12401989.960 10 0 60425 21600.00000 0 -2447221.712 -23495101.190 -9587673.956 10 0 60425 22500.00000 0 -2512750.784 -24502278.291 -6586793.261 10 0 60425 23400.00000 0 -2647227.668 -25124449.979 -3457774.320 10 0 60425 24300.00000 0 -2797044.293 -25346780.078 -261508.055 10 0 60425 25200.00000 0 -2907282.134 -25167652.866 2939843.365 10 0 60425 26100.00000 0 -2924283.781 -24598690.460 6084061.957 10 0 60425 27000.00000 0 -2798170.642 -23664233.120 9110087.099 10 0 60425 27900.00000 0 -2485199.493 -22400305.736 11959202.268 10 0 60425 28800.00000 0 -1949857.808 -20853115.246 14576171.979 10 0 60425 29700.00000 0 -1166609.221 -19077143.195 16910307.026 10 0 60425 30600.00000 0 -121215.593 -17132914.252 18916437.909 10 0 60425 31500.00000 0 1188419.821 -15084534.583 20555778.457 10 0 60425 32400.00000 0 2751923.407 -12997102.907 21796664.132 10 0 60425 33300.00000 0 4546650.282 -10934101.778 22615152.075 10 0 60425 34200.00000 0 6538403.396 -8954876.859 22995472.634 10 0 60425 35100.00000 0 8682643.248 -7112307.797 22930324.882 10 0 60425 36000.00000 0 10926138.773 -5450766.022 22421011.378 10 0 60425 36900.00000 0 13208991.848 -4004442.753 21477410.179 10 0 60425 37800.00000 0 15466952.705 -2796115.123 20117784.798 10 0 60425 38700.00000 0 17633931.523 -1836400.330 18368435.556 10 0 60425 39600.00000 0 19644603.246 -1123527.703 16263198.410 10 0 60425 40500.00000 0 21436998.670 -643637.329 13842800.019 10 0 60425 41400.00000 0 22954974.977 -371592.195 11154080.344 10 0 60425 42300.00000 0 24150463.462 -272269.623 8249096.683 10 0 60425 43200.00000 0 24985400.970 -302277.729 5184125.308 10 0 60425 44100.00000 0 25433264.238 -412024.850 2018579.093 10 0 60425 45000.00000 0 25480142.464 -548054.843 -1186138.572 10 0 60425 45900.00000 0 25125302.403 -655549.710 -4367821.776 10 0 60425 46800.00000 0 24381221.358 -680893.620 -7464669.038 10 0 60425 47700.00000 0 23273085.588 -574189.429 -10416485.594 10 0 60425 48600.00000 0 21837774.181 -291620.444 -13165857.291 10 0 60425 49500.00000 0 20122370.077 202443.594 -15659272.744 10 0 60425 50400.00000 0 18182259.986 933686.782 -17848171.313 10 0 60425 51300.00000 0 16078902.350 1916509.589 -19689895.893 10 0 60425 52200.00000 0 13877356.546 3153171.984 -21148531.417 10 0 60425 53100.00000 0 11643676.745 4633455.141 -22195612.178 10 0 60425 54000.00000 0 9442279.506 6334857.908 -22810683.768 10 0 60425 54900.00000 0 7333395.318 8223321.534 -22981708.253 10 0 60425 55800.00000 0 5370710.827 10254453.766 -22705304.337 10 0 60425 56700.00000 0 3599300.307 12375202.239 -21986817.479 10 0 60425 57600.00000 0 2053932.812 14525907.941 -20840218.310 10 0 60425 58500.00000 0 757825.493 16642653.256 -19287831.053 10 0 60425 59400.00000 0 -278105.318 18659806.433 -17359897.069 10 0 60425 60300.00000 0 -1055464.777 20512655.800 -15093981.979 10 0 60425 61200.00000 0 -1588063.878 22140022.987 -12534238.036 10 0 60425 62100.00000 0 -1901082.278 23486745.142 -9730536.449 10 0 60425 63000.00000 0 -2029746.587 24505921.656 -6737487.123 10 0 60425 63900.00000 0 -2017581.717 25160830.765 -3613365.688 10 0 60425 64800.00000 0 -1914311.040 25426435.387 -418969.601 10 0 60425 65700.00000 0 -1773495.951 25290415.331 2783573.325 10 0 60425 66600.00000 0 -1650016.367 24753682.826 5932019.832 10 0 60425 67500.00000 0 -1597500.116 23830360.719 8965225.076 10 0 60425 68400.00000 0 -1665811.001 22547225.402 11824331.141 10 0 60425 69300.00000 0 -1898702.346 20942638.846 14453906.929 10 0 60425 70200.00000 0 -2331735.473 19065015.654 16803017.361 10 0 60425 71100.00000 0 -2990550.861 16970890.184 18826201.693 10 0 60425 72000.00000 0 -3889564.638 14722665.104 20484342.876 10 0 60425 72900.00000 0 -5031144.950 12386135.454 21745412.280 10 0 60425 73800.00000 0 -6405302.585 10027891.060 22585076.757 10 0 60425 74700.00000 0 -7989908.845 7712704.588 22987157.600 10 0 60425 75600.00000 0 -9751431.845 5501012.608 22943933.822 10 0 60425 76500.00000 0 -11646161.158 3446592.752 22456284.843 10 0 60425 77400.00000 0 -13621870.689 1594531.750 21533670.466 10 0 60425 78300.00000 0 -15619851.711 -20433.014 20193948.734 10 0 60425 79200.00000 0 -17577232.827 -1375131.166 18463034.956 10 0 60425 80100.00000 0 -19429491.652 -2458686.958 16374407.880 10 0 60425 81000.00000 0 -21113054.940 -3272727.702 13968471.620 10 0 60425 81900.00000 0 -22567879.890 -3831065.116 11291784.548 10 0 60425 82800.00000 0 -23739909.686 -4158863.412 8396168.868 10 0 60425 83700.00000 0 -24583301.085 -4291329.232 5337716.965 10 0 60425 84600.00000 0 -25062330.833 -4271978.499 2175712.792 10 0 60425 85500.00000 0 -25152900.608 -4150553.081 -1028511.530 10 0 60426 0.00000 0 -24843576.618 -3980675.106 -4212761.828 10 0 60426 900.00000 0 -24136118.907 -3817337.969 -7315189.578 10 0 60426 1800.00000 0 -23045477.364 -3714340.625 -10275493.253 10 0 60426 2700.00000 0 -21599252.755 -3721773.922 -13036095.326 10 0 60426 3600.00000 0 -19836644.401 -3883666.416 -15543267.252 10 0 60426 4500.00000 0 -17806927.481 -4235890.264 -17748181.627 10 0 60426 5400.00000 0 -15567522.851 -4804417.132 -19607870.156 10 0 60426 6300.00000 0 -13181739.553 -5603999.368 -21086068.224 10 0 60426 7200.00000 0 -10716284.065 -6637333.757 -22153929.065 10 0 60426 8100.00000 0 -8238640.189 -7894744.839 -22790593.170 10 0 60426 9000.00000 0 -5814428.964 -9354402.774 -22983601.441 10 0 60426 9900.00000 0 -3504858.859 -10983068.081 -22729143.648 10 0 60426 10800.00000 0 -1364372.715 -12737333.213 -22032137.008 10 0 60426 11700.00000 0 561410.437 -14565309.792 -20906133.052 10 0 60426 12600.00000 0 2237372.926 -16408691.292 -19373054.307 10 0 60426 13500.00000 0 3640125.735 -18205104.848 -17462765.766 10 0 60426 14400.00000 0 4758734.973 -19890653.465 -15212489.415 10 0 60426 15300.00000 0 5594918.160 -21402541.484 -12666073.365 10 0 60426 16200.00000 0 6162703.533 -22681672.581 -9873130.135 10 0 60426 17100.00000 0 6487568.417 -23675110.553 -6888061.434 10 0 60426 18000.00000 0 6605094.847 -24338298.895 -3768989.199 10 0 60426 18900.00000 0 6559201.141 -24636945.482 -576614.649 10 0 60426 19800.00000 0 6400026.121 -24548492.898 2626971.450 10 0 60426 20700.00000 0 6181557.255 -24063112.714 5779503.144 10 0 60426 21600.00000 0 5959104.652 -23184182.483 8819753.731 10 0 60426 22500.00000 0 5786728.987 -21928226.047 11688726.114 10 0 60426 23400.00000 0 5714732.915 -20324320.571 14330795.585 10 0 60426 24300.00000 0 5787322.397 -18412996.055 16694782.938 10 0 60426 25200.00000 0 6040536.648 -16244674.088 18734937.688 10 0 60426 26100.00000 0 6500533.747 -13877711.657 20411813.120 10 0 60426 27000.00000 0 7182303.617 -11376131.791 21693017.441 10 0 60426 27900.00000 0 8088862.011 -8807135.243 22553827.829 10 0 60426 28800.00000 0 9210959.023 -6238496.022 22977656.858 10 0 60426 29700.00000 0 10527314.241 -3735947.803 22956363.533 10 0 60426 30600.00000 0 12005368.963 -1360668.182 22490403.933 10 0 60426 31500.00000 0 13602524.651 833036.512 21588819.187 10 0 60426 32400.00000 0 15267816.845 2799751.626 20269061.241 10 0 60426 33300.00000 0 16943955.866 4504597.687 18556659.574 10 0 60426 34200.00000 0 18569650.471 5924430.302 16484734.710 10 0 60426 35100.00000 0 20082118.761 7048547.833 14093367.014 10 0 60426 36000.00000 0 21419682.663 7878878.392 11428831.833 10 0 60426 36900.00000 0 22524338.398 8429639.010 8542714.602 10 0 60426 37800.00000 0 23344195.908 8726481.649 5490921.891 10 0 60426 38700.00000 0 23835685.138 8805162.050 2332606.543 10 0 60426 39600.00000 0 23965436.293 8709787.360 -870972.988 10 0 60426 40500.00000 0 23711754.380 8490716.343 -4057637.418 10 0 60426 41400.00000 0 23065624.963 8202200.744 -7165492.696 10 0 60426 42300.00000 0 22031207.491 7899867.575 -10134133.787 10 0 60426 43200.00000 0 20625793.932 7638149.114 -12905822.396 10 0 60426 44100.00000 0 18879232.871 7467769.881 -15426615.289 10 0 60426 45000.00000 0 16832841.741 7433397.723 -17647420.589 10 0 60426 45900.00000 0 14537851.517 7571559.375 -19524960.910 10 0 60426 46800.00000 0 12053447.877 7908909.859 -21022624.001 10 0 60426 47700.00000 0 9444490.012 8460930.174 -22111183.750 10 0 60426 48600.00000 0 6779001.857 9231109.675 -22769377.073 10 0 60426 49500.00000 0 4125540.134 10210649.025 -22984325.002 10 0 60426 50400.00000 0 1550548.904 11378697.544 -22751789.388 10 0 60426 51300.00000 0 -884189.127 12703116.117 -22076259.893 10 0 60426 52200.00000 0 -3123898.349 14141734.443 -20970869.241 10 0 60426 53100.00000 0 -5122855.305 15644050.345 -19457138.131 10 0 60426 54000.00000 0 -6846048.058 17153299.959 -17564554.608 10 0 60426 54900.00000 0 -8270381.140 18608811.705 -15329996.010 10 0 60426 55800.00000 0 -9385376.501 19948544.625 -12797004.869 10 0 60426 56700.00000 0 -10193342.424 21111703.795 -10014933.205 10 0 60426 57600.00000 0 -10709004.825 22041322.024 -7037972.410 10 0 60426 58500.00000 0 -10958618.264 22686698.372 -3924088.355 10 0 60426 59400.00000 0 -10978596.143 23005590.241 -733883.431 10 0 60426 60300.00000 0 -10813719.888 22966066.159 2470591.395 10 0 60426 61200.00000 0 -10515004.769 22547941.116 5627050.309 10 0 60426 62100.00000 0 -10137314.335 21743734.143 8674187.684 10 0 60426 63000.00000 0 -9736825.751 20559108.260 11552870.175 10 0 60426 63900.00000 0 -9368454.200 19012774.858 14207282.352 10 0 60426 64800.00000 0 -9083345.723 17135867.148 16586003.732 10 0 60426 65700.00000 0 -8926544.445 14970809.490 18642996.823 10 0 60426 66600.00000 0 -8934932.294 12569730.352 20338487.849 10 0 60426 67500.00000 0 -9135527.409 9992485.199 21639724.270 10 0 60426 68400.00000 0 -9544212.118 7304371.445 22521595.791 10 0 60426 69300.00000 0 -10164943.227 4573629.801 22967108.171 10 0 60426 70200.00000 0 -10989477.243 1868834.744 22967701.977 10 0 60426 71100.00000 0 -11997621.834 -743719.101 22523411.110 10 0 60426 72000.00000 0 -13158003.123 -3202527.925 21642858.716 10 0 60426 72900.00000 0 -14429317.252 -5453184.773 20343090.820 10 0 60426 73800.00000 0 -15762014.723 -7450386.810 18649250.692 10 0 60426 74700.00000 0 -17100348.170 -9159562.160 16594099.693 10 0 60426 75600.00000 0 -18384699.092 -10558050.124 14217392.941 10 0 60426 76500.00000 0 -19554087.379 -11635786.823 11565120.744 10 0 60426 77400.00000 0 -20548759.426 -12395468.416 8688629.295 10 0 60426 78300.00000 0 -21312747.061 -12852185.617 5643636.482 10 0 60426 79200.00000 0 -21796290.150 -13032545.037 2489160.856 10 0 60426 80100.00000 0 -21958020.941 -12973314.252 -713616.225 10 0 60426 81000.00000 0 -21766817.666 -12719647.576 -3902533.673 10 0 60426 81900.00000 0 -21203248.415 -12322967.182 -7015656.204 10 0 60426 82800.00000 0 -20260543.110 -11838588.999 -9992478.730 10 0 60426 83700.00000 0 -18945051.056 -11323193.825 -12775105.913 10 0 60426 84600.00000 0 -17276163.050 -10832250.852 -15309383.422 10 0 60426 85500.00000 0 -15285699.568 -10417503.096 -17545958.275 10 0 60427 0.00000 0 -13016789.215 -10124621.792 -19441246.856 10 0 60427 900.00000 0 -10522281.724 -9991129.669 -20958292.158 10 0 60427 1800.00000 0 -7862763.794 -10044682.249 -22067490.511 10 0 60427 2700.00000 0 -5104255.743 -10301780.290 -22747176.570 10 0 60427 3600.00000 0 -2315687.433 -10766969.256 -22984052.140 10 0 60427 4500.00000 0 433742.780 -11432560.415 -22773451.143 10 0 60427 5400.00000 0 3077216.013 -12278886.281 -22119435.057 10 0 60427 6300.00000 0 5552837.511 -13275080.353 -21034716.630 10 0 60427 7200.00000 0 7805972.000 -14380348.784 -19540413.101 10 0 60427 8100.00000 0 9791272.517 -15545680.602 -17665633.526 10 0 60427 9000.00000 0 11474318.447 -16715924.343 -15446908.206 10 0 60427 9900.00000 0 12832794.885 -17832143.193 -12927471.415 10 0 60427 10800.00000 0 13857164.991 -18834148.777 -10156411.764 10 0 60427 11700.00000 0 14550808.371 -19663105.915 -7187707.190 10 0 60427 12600.00000 0 14929621.444 -20264097.766 -4079164.251 10 0 60427 13500.00000 0 15021098.329 -20588542.236 -891283.192 10 0 60427 14400.00000 0 14862933.023 -20596356.991 2313928.107 10 0 60427 15300.00000 0 14501203.934 -20257781.443 5474167.141 10 0 60427 16200.00000 0 13988219.255 -19554778.614 8528052.318 10 0 60427 17100.00000 0 13380115.852 -18481957.961 11416316.732 10 0 60427 18000.00000 0 12734314.292 -17046980.638 14082956.597 10 0 60427 18900.00000 0 12106938.215 -15270430.523 16476312.148 10 0 60427 19800.00000 0 11550307.207 -13185156.827 18550060.499 10 0 60427 20700.00000 0 11110608.658 -10835116.106 20264102.032 10 0 60427 21600.00000 0 10825846.035 -8273762.098 21585324.301 10 0 60427 22500.00000 0 10724148.996 -5562050.202 22488230.003 10 0 60427 23400.00000 0 10822515.381 -2766139.027 22955418.214 10 0 60427 24300.00000 0 11126036.939 45116.555 22977910.874 10 0 60427 25200.00000 0 11627640.561 2802778.222 22555319.237 10 0 60427 26100.00000 0 12308355.470 5440436.147 21695847.754 10 0 60427 27000.00000 0 13138095.162 7896713.617 20416135.600 10 0 60427 27900.00000 0 14076921.770 10117562.307 18740938.723 10 0 60427 28800.00000 0 15076740.569 12058254.680 16702658.032 10 0 60427 29700.00000 0 16083354.619 13684992.240 14340721.933 10 0 60427 30600.00000 0 17038794.418 14976063.991 11700834.059 10 0 60427 31500.00000 0 17883825.785 15922507.647 8834099.538 10 0 60427 32400.00000 0 18560531.439 16528246.572 5796045.564 10 0 60427 33300.00000 0 19014858.176 16809696.945 2645554.207 10 0 60427 34200.00000 0 19199022.513 16794861.664 -556272.610 10 0 60427 35100.00000 0 19073673.064 16521948.934 -3747294.444 10 0 60427 36000.00000 0 18609717.701 16037573.500 -6865537.250 10 0 60427 36900.00000 0 17789737.192 15394616.200 -9850398.343 10 0 60427 37800.00000 0 16608924.172 14649832.102 -12643827.695 10 0 60427 38700.00000 0 15075506.040 13861308.327 -15191462.087 10 0 60427 39600.00000 0 13210632.042 13085879.219 -17443689.470 10 0 60427 40500.00000 0 11047727.355 12376608.543 -19356622.170 10 0 60427 41400.00000 0 8631339.411 11780445.619 -20892959.434 10 0 60427 42300.00000 0 6015523.252 11336155.159 -22022721.935 10 0 60427 43200.00000 0 3261832.105 11072608.909 -22723843.434 10 0 60427 44100.00000 0 436996.127 11007512.024 -22982607.675 10 0 60427 45000.00000 0 -2389614.505 11146618.592 -22793921.564 10 0 60427 45900.00000 0 -5148636.796 11483470.041 -22161418.993 10 0 60427 46800.00000 0 -7773362.369 11999667.916 -21097392.968 10 0 60427 47700.00000 0 -10202274.838 12665669.801 -19622557.072 10 0 60427 48600.00000 0 -12381371.474 13442074.830 -17765640.760 10 0 60427 49500.00000 0 -14266172.474 14281344.359 -15562826.273 10 0 60427 50400.00000 0 -15823334.256 15129884.689 -13057038.255 10 0 60427 51300.00000 0 -17031799.967 15930403.222 -10297100.215 10 0 60427 52200.00000 0 -17883440.010 16624437.675 -7336774.746 10 0 60427 53100.00000 0 -18383157.028 17154950.582 -4233707.006 10 0 60427 54000.00000 0 -18548452.512 17468878.424 -1048292.853 10 0 60427 54900.00000 0 -18408475.180 17519526.924 2157505.242 10 0 60427 55800.00000 0 -18002593.077 17268710.513 5321370.519 10 0 60427 56700.00000 0 -17378551.601 16688545.243 8381847.949 10 0 60427 57600.00000 0 -16590296.987 15762819.457 11279539.663 10 0 60427 58500.00000 0 -15695558.364 14487884.366 13958256.179 10 0 60427 59400.00000 0 -14753291.426 12873027.349 16366101.124 10 0 60427 60300.00000 0 -13821091.894 10940312.514 18456468.863 10 0 60427 61200.00000 0 -12952687.660 8723895.387 20188936.498 10 0 60427 62100.00000 0 -12195614.603 6268840.401 21530034.098 10 0 60427 63000.00000 0 -11589172.824 3629490.212 22453879.575 10 0 60427 63900.00000 0 -11162747.966 867454.190 22942667.283 10 0 60427 64800.00000 0 -10934566.782 -1950701.297 22987002.198 10 0 60427 65700.00000 0 -10910937.985 -4755966.244 22586074.232 10 0 60427 66600.00000 0 -11086009.267 -7479501.305 21747670.052 10 0 60427 67500.00000 0 -11442050.114 -10055246.411 20488022.450 10 0 60427 68400.00000 0 -11950248.396 -12422417.372 18831500.055 10 0 60427 69300.00000 0 -12571987.584 -14527788.578 16810142.844 10 0 60427 70200.00000 0 -13260551.582 -16327668.554 14463051.556 10 0 60427 71100.00000 0 -13963186.419 -17789487.499 11835641.729 10 0 60427 72000.00000 0 -14623433.005 -18892931.550 8978775.574 10 0 60427 72900.00000 0 -15183633.648 -19630577.045 5947787.358 10 0 60427 73800.00000 0 -15587507.376 -20007998.466 2801420.093 10 0 60427 74700.00000 0 -15782685.742 -20043345.544 -399306.610 10 0 60427 75600.00000 0 -15723102.000 -19766407.034 -3592276.095 10 0 60427 76500.00000 0 -15371132.209 -19217200.226 -6715478.918 10 0 60427 77400.00000 0 -14699396.809 -18444145.254 -9708218.336 10 0 60427 78300.00000 0 -13692145.190 -17501900.898 -12512293.272 10 0 60427 79200.00000 0 -12346163.069 -16448953.040 -15073135.295 10 0 60427 80100.00000 0 -10671162.454 -15345057.567 -17340876.872 10 0 60427 81000.00000 0 -8689635.711 -14248645.811 -19271329.482 10 0 60427 81900.00000 0 -6436177.802 -13214302.365 -20826851.999 10 0 60427 82800.00000 0 -3956303.255 -12290422.115 -21977091.812 10 0 60427 83700.00000 0 -1304805.754 -11517145.799 -22699583.801 10 0 60427 84600.00000 0 1456272.427 -10924661.641 -22980195.051 10 0 60427 85500.00000 0 4259977.310 -10531945.116 -22813406.247 99